IMAGE                   
1 26113U 00017A   19261.73342116  .00000286  00000-0  14840-1 0  9991
2 26113  94.4848 270.2012 7400381 214.2156  61.7598  1.68649583119973
DELTA 2 R/B(2)          
1 26115U 00017C   19259.02554822  .00000169  00000-0 -59398-1 0  9999
2 26115  94.4758 270.3586 7388855 216.6390  57.2899  1.68208040119602